Location: Arleux
(50.3632°N, 2.8721°E)
Time: 23:30:14
(UTC+00:00)

ATLAS 5 CENTAUR R/B - Pass Details

Date: 15 December 2019
Orbit: 550 x 1109 km, 63.4° (Epoch: 17 January)

Event Time Altitude Azimuth Distance (km) Brightness Sun altitude
Exits shadow 04:34:00 20° 11° (NNE) 1,653 3.8 -28.6°
Drops below altitude 10° 04:36:30 10° 36° (NE) 2,312 4.8 -28.2°
Sets 04:39:35 0° 50° (NE) 3,356 6.0 -27.7°
